SAS4677 ENVA-LEMG

Flight info

Callsign SAS4677
Flight time 4h 19m
Altitude 34000
Route UTUNA DCT DIMUM DCT OKBUN DCT EVTOG DCT AMSEV P602 PEVOR DCT IPSUB/N0435F360 P174 KUSHA DCT KUBAT DCT BUB DCT SISGA/N0435F350 DCT KOVIN DCT DUCRA DCT RESMI DCT DEKOD DCT DISAK DCT ARKIP DCT ARNAV DCT LMG/N0443F370 DCT UVELI DCT OSMOB DCT ARVID DCT PPN DCT NOLSA DCT ALEPO DCT VASUM DCT BANEV DCT BAN DCT GOTOR DCT KAMPO DCT MONTO DCT CRISA DCT VULPE
Aircraft A320/M-SDE3FGHIRWY/LB1

Departure

Time 2026-04-30 06:44
Airport Trondheim Airport, Værnes (ENVA)

Arrival

Time 2026-04-30 11:04
Airport Málaga-Costa del Sol Airport (LEMG)
Time Latitude Longitude Altitude Speed Heading
2026-04-30 06:37 63.45532 10.91905 46 ft 0 kts 293°
2026-04-30 06:37 63.45532 10.91904 46 ft 0 kts 293°
2026-04-30 06:37 63.45533 10.91903 46 ft 0 kts 293°
2026-04-30 06:38 63.45534 10.91895 46 ft 1 kts 293°
2026-04-30 06:38 63.45536 10.91885 46 ft 1 kts 293°
2026-04-30 06:38 63.45540 10.91867 44 ft 2 kts 292°
2026-04-30 06:38 63.45545 10.91832 45 ft 3 kts 285°
2026-04-30 06:39 63.45549 10.91686 44 ft 11 kts 271°
2026-04-30 06:39 63.45584 10.91712 44 ft 7 kts 68°
2026-04-30 06:39 63.45594 10.91810 45 ft 6 kts 83°
2026-04-30 06:39 63.45596 10.91892 46 ft 5 kts 89°
2026-04-30 06:40 63.45595 10.91954 46 ft 3 kts 92°
2026-04-30 06:40 63.45594 10.92002 47 ft 3 kts 92°
2026-04-30 06:40 63.45593 10.92067 47 ft 7 kts 91°
2026-04-30 06:40 63.45593 10.92192 48 ft 9 kts 89°
2026-04-30 06:41 63.45594 10.92344 49 ft 11 kts 89°
2026-04-30 06:41 63.45594 10.92519 51 ft 12 kts 90°
2026-04-30 06:41 63.45594 10.92718 52 ft 13 kts 90°
2026-04-30 06:41 63.45595 10.92926 53 ft 14 kts 90°
2026-04-30 06:42 63.45594 10.93145 55 ft 15 kts 91°
2026-04-30 06:42 63.45593 10.93378 54 ft 16 kts 90°
2026-04-30 06:42 63.45593 10.93636 52 ft 17 kts 89°
2026-04-30 06:42 63.45620 10.93893 55 ft 17 kts 53°
2026-04-30 06:43 63.45702 10.94070 55 ft 11 kts 46°
2026-04-30 06:43 63.45741 10.94105 63 ft 7 kts 342°
2026-04-30 06:43 63.45753 10.94052 63 ft 0 kts 276°
2026-04-30 06:43 63.45756 10.93830 60 ft 46 kts 270°
2026-04-30 06:44 63.45759 10.92626 52 ft 106 kts 270°
2026-04-30 06:44 63.45760 10.90613 38 ft 150 kts 269°
2026-04-30 06:44 63.45759 10.88150 325 ft 162 kts 269°
2026-04-30 06:44 63.45730 10.85579 790 ft 167 kts 268°
2026-04-30 06:45 63.45695 10.83004 1314 ft 165 kts 268°
2026-04-30 06:45 63.45589 10.80495 1963 ft 157 kts 257°
2026-04-30 06:45 63.45212 10.78285 2578 ft 151 kts 239°
2026-04-30 06:45 63.44382 10.76762 2874 ft 167 kts 204°
2026-04-30 06:46 63.43186 10.76441 3244 ft 182 kts 179°
2026-04-30 06:46 63.41918 10.77230 3599 ft 198 kts 161°
2026-04-30 06:46 63.40703 10.78902 3934 ft 212 kts 150°
2026-04-30 06:46 63.39355 10.80340 4150 ft 224 kts 168°
2026-04-30 06:47 63.37772 10.81077 4426 ft 243 kts 178°
2026-04-30 06:47 63.36045 10.81595 4756 ft 264 kts 179°
2026-04-30 06:47 63.34167 10.82141 5407 ft 273 kts 179°
2026-04-30 06:47 63.32266 10.82698 6115 ft 278 kts 178°
2026-04-30 06:48 63.30325 10.83266 6845 ft 284 kts 178°
2026-04-30 06:48 63.28377 10.83840 7519 ft 289 kts 177°
2026-04-30 06:48 63.26347 10.84438 8227 ft 292 kts 177°
2026-04-30 06:48 63.24316 10.85037 8923 ft 296 kts 177°
2026-04-30 06:49 63.22258 10.85642 9604 ft 300 kts 177°
2026-04-30 06:49 63.20201 10.86245 10271 ft 304 kts 177°
2026-04-30 06:49 63.18064 10.86865 10649 ft 319 kts 177°
2026-04-30 06:49 63.15782 10.87519 10779 ft 341 kts 177°
2026-04-30 06:50 63.13374 10.87858 11063 ft 350 kts 187°
2026-04-30 06:50 63.10958 10.87178 11575 ft 350 kts 198°
2026-04-30 06:50 63.08605 10.85770 12168 ft 352 kts 201°
2026-04-30 06:50 63.06232 10.84314 12757 ft 355 kts 201°
2026-04-30 06:51 63.03805 10.82830 13359 ft 359 kts 201°
2026-04-30 06:51 63.01422 10.81379 13927 ft 362 kts 201°
2026-04-30 06:51 62.98983 10.79894 14471 ft 365 kts 201°
2026-04-30 06:51 62.96491 10.78377 15003 ft 368 kts 201°
2026-04-30 06:52 62.94011 10.76873 15518 ft 371 kts 201°
2026-04-30 06:52 62.91549 10.75383 16033 ft 374 kts 201°
2026-04-30 06:52 62.89030 10.73854 16549 ft 377 kts 201°
2026-04-30 06:52 62.86458 10.72297 17076 ft 380 kts 201°
2026-04-30 06:53 62.83900 10.70748 17610 ft 383 kts 201°
2026-04-30 06:53 62.81299 10.69324 18137 ft 388 kts 199°
2026-04-30 06:53 62.78638 10.68113 18655 ft 392 kts 197°
2026-04-30 06:53 62.75939 10.67031 19131 ft 396 kts 195°
2026-04-30 06:54 62.73249 10.66009 19619 ft 399 kts 195°
2026-04-30 06:54 62.70475 10.64954 20131 ft 401 kts 195°
2026-04-30 06:54 62.67718 10.63875 20627 ft 403 kts 195°
2026-04-30 06:54 62.64952 10.62761 21130 ft 406 kts 195°
2026-04-30 06:55 62.62169 10.61617 21614 ft 408 kts 196°
2026-04-30 06:55 62.59413 10.60467 22063 ft 410 kts 196°
2026-04-30 06:55 62.56569 10.59279 22517 ft 413 kts 195°
2026-04-30 06:55 62.53740 10.58102 22966 ft 415 kts 195°
2026-04-30 06:56 62.50933 10.56938 23401 ft 417 kts 195°
2026-04-30 06:56 62.48072 10.55760 23833 ft 420 kts 195°
2026-04-30 06:56 62.45193 10.54583 24220 ft 422 kts 195°
2026-04-30 06:56 62.42298 10.53408 24583 ft 424 kts 195°
2026-04-30 06:57 62.39392 10.52233 24928 ft 426 kts 195°
2026-04-30 06:57 62.37422 10.51435 25159 ft 427 kts 195°
2026-04-30 06:57 62.33544 10.49865 25623 ft 429 kts 195°
2026-04-30 06:57 62.31560 10.49058 25857 ft 430 kts 195°
2026-04-30 06:58 62.28612 10.47860 26183 ft 432 kts 195°
2026-04-30 06:58 62.25653 10.46659 26505 ft 434 kts 195°
2026-04-30 06:58 62.22681 10.45456 26826 ft 435 kts 195°
2026-04-30 06:58 62.19696 10.44251 27159 ft 437 kts 195°
2026-04-30 06:59 62.16704 10.43052 27459 ft 439 kts 194°
2026-04-30 06:59 62.13695 10.41855 27772 ft 441 kts 194°
2026-04-30 06:59 62.10668 10.40655 28070 ft 443 kts 194°
2026-04-30 06:59 62.07638 10.39451 28373 ft 445 kts 194°
2026-04-30 07:00 62.04588 10.38236 28683 ft 446 kts 194°
2026-04-30 07:00 62.01530 10.37017 28992 ft 448 kts 194°
2026-04-30 07:00 61.98472 10.35761 29431 ft 446 kts 195°
2026-04-30 07:00 61.95451 10.34358 29858 ft 444 kts 197°
2026-04-30 07:01 61.92449 10.32838 30279 ft 443 kts 198°
2026-04-30 07:01 61.89462 10.31257 30658 ft 442 kts 198°
2026-04-30 07:01 61.86482 10.29666 31002 ft 442 kts 198°
2026-04-30 07:01 61.83497 10.28092 31343 ft 442 kts 198°
2026-04-30 07:02 61.80514 10.26559 31685 ft 442 kts 197°
2026-04-30 07:02 61.77528 10.25057 32034 ft 441 kts 197°
2026-04-30 07:02 61.74536 10.23579 32373 ft 441 kts 197°
2026-04-30 07:02 61.71547 10.22119 32717 ft 441 kts 196°
2026-04-30 07:03 61.68565 10.20663 33067 ft 440 kts 196°
2026-04-30 07:03 61.65563 10.19329 33403 ft 441 kts 193°
2026-04-30 07:03 61.62539 10.18242 33740 ft 441 kts 192°
2026-04-30 07:03 61.59499 10.17321 34086 ft 441 kts 190°
2026-04-30 07:04 61.56461 10.16478 34409 ft 440 kts 190°
2026-04-30 07:04 61.53427 10.15641 34663 ft 440 kts 190°
2026-04-30 07:04 61.50395 10.14773 34929 ft 439 kts 191°
2026-04-30 07:04 61.47376 10.13870 35183 ft 438 kts 191°
2026-04-30 07:05 61.41361 10.11975 35669 ft 436 kts 191°
2026-04-30 07:05 61.38365 10.11019 35913 ft 436 kts 191°
2026-04-30 07:05 61.35367 10.10068 36139 ft 435 kts 191°
2026-04-30 07:06 61.32374 10.09124 36354 ft 434 kts 191°
2026-04-30 07:06 61.29387 10.08189 36568 ft 434 kts 191°
2026-04-30 07:06 61.26406 10.07264 36768 ft 433 kts 191°
2026-04-30 07:06 61.23424 10.06344 36960 ft 433 kts 191°
2026-04-30 07:07 61.20442 10.05429 37136 ft 433 kts 191°
2026-04-30 07:07 61.17460 10.04519 37322 ft 432 kts 191°
2026-04-30 07:07 61.11477 10.02696 37419 ft 438 kts 191°
2026-04-30 07:08 61.05404 10.00844 37416 ft 443 kts 190°
2026-04-30 07:08 60.99299 9.98982 37414 ft 444 kts 190°
2026-04-30 07:09 60.93178 9.97113 37414 ft 445 kts 190°
2026-04-30 07:09 60.87057 9.95269 37407 ft 445 kts 190°
2026-04-30 07:10 60.80923 9.93426 37410 ft 445 kts 191°
2026-04-30 07:10 60.74866 9.91199 37410 ft 445 kts 193°
2026-04-30 07:11 60.68802 9.88657 37409 ft 445 kts 194°
2026-04-30 07:11 60.62730 9.86157 37409 ft 445 kts 193°
2026-04-30 07:12 60.56641 9.83772 37403 ft 445 kts 193°
2026-04-30 07:12 60.50552 9.81426 37407 ft 446 kts 192°
2026-04-30 07:13 60.44459 9.79065 37406 ft 446 kts 193°
2026-04-30 07:13 60.38365 9.76707 37404 ft 446 kts 192°
2026-04-30 07:14 60.32269 9.74350 37407 ft 446 kts 192°
2026-04-30 07:14 60.26174 9.71998 37402 ft 446 kts 192°
2026-04-30 07:15 60.20079 9.69655 37405 ft 446 kts 192°
2026-04-30 07:15 60.13972 9.67341 37404 ft 446 kts 192°
2026-04-30 07:16 60.07867 9.65045 37405 ft 446 kts 192°
2026-04-30 07:16 60.01766 9.62731 37405 ft 446 kts 192°
2026-04-30 07:17 59.95664 9.60428 37405 ft 446 kts 192°
2026-04-30 07:18 59.86508 9.56993 37407 ft 446 kts 192°
2026-04-30 07:18 59.80403 9.54714 37418 ft 446 kts 192°
2026-04-30 07:19 59.74300 9.52439 37425 ft 446 kts 192°
2026-04-30 07:19 59.68199 9.50181 37436 ft 446 kts 192°
2026-04-30 07:20 59.62097 9.47941 37447 ft 446 kts 192°
2026-04-30 07:20 59.56000 9.45699 37445 ft 446 kts 192°
2026-04-30 07:21 59.49904 9.43452 37445 ft 446 kts 192°
2026-04-30 07:21 59.43805 9.41231 37444 ft 446 kts 192°
2026-04-30 07:22 59.34663 9.37918 37437 ft 445 kts 192°
2026-04-30 07:22 59.28564 9.35708 37438 ft 445 kts 192°
2026-04-30 07:23 59.22470 9.33495 37434 ft 445 kts 192°
2026-04-30 07:23 59.16379 9.31307 37439 ft 445 kts 191°
2026-04-30 07:24 59.10279 9.29129 37440 ft 445 kts 191°
2026-04-30 07:24 59.04182 9.26955 37439 ft 445 kts 191°
2026-04-30 07:25 58.98086 9.24798 37441 ft 445 kts 191°
2026-04-30 07:25 58.91990 9.22645 37440 ft 445 kts 191°
2026-04-30 07:26 58.85894 9.20499 37444 ft 446 kts 191°
2026-04-30 07:26 58.79789 9.18356 37441 ft 446 kts 191°
2026-04-30 07:27 58.73693 9.16211 37442 ft 446 kts 191°
2026-04-30 07:27 58.67586 9.14080 37442 ft 446 kts 191°
2026-04-30 07:28 58.61488 9.11966 37445 ft 446 kts 191°
2026-04-30 07:28 58.55387 9.09846 37445 ft 445 kts 191°
2026-04-30 07:29 58.49289 9.07739 37445 ft 445 kts 191°
2026-04-30 07:29 58.43186 9.05639 37449 ft 445 kts 191°
2026-04-30 07:30 58.34044 9.02507 37447 ft 445 kts 191°
2026-04-30 07:31 58.27947 9.00426 37446 ft 445 kts 191°
2026-04-30 07:31 58.21847 8.98354 37453 ft 445 kts 191°
2026-04-30 07:32 58.15753 8.96294 37451 ft 445 kts 191°
2026-04-30 07:32 58.09660 8.94243 37456 ft 445 kts 191°
2026-04-30 07:33 58.03569 8.92199 37452 ft 444 kts 191°
2026-04-30 07:33 57.97480 8.90162 37454 ft 445 kts 191°
2026-04-30 07:34 57.91384 8.88126 37452 ft 445 kts 191°
2026-04-30 07:34 57.85283 8.86086 37455 ft 446 kts 191°
2026-04-30 07:35 57.79173 8.84055 37455 ft 446 kts 191°
2026-04-30 07:35 57.73050 8.82038 37464 ft 447 kts 191°
2026-04-30 07:36 57.66918 8.80027 37470 ft 447 kts 190°
2026-04-30 07:36 57.60800 8.78332 37475 ft 448 kts 188°
2026-04-30 07:37 57.54583 8.76858 37483 ft 448 kts 188°
2026-04-30 07:37 57.48443 8.75377 37483 ft 448 kts 188°
2026-04-30 07:38 57.42264 8.73814 37489 ft 448 kts 189°
2026-04-30 07:38 57.36090 8.72229 37496 ft 448 kts 188°
2026-04-30 07:39 57.29919 8.70675 37500 ft 448 kts 188°
2026-04-30 07:39 57.24748 8.69383 37503 ft 447 kts 188°
2026-04-30 07:40 57.18581 8.67847 37505 ft 447 kts 188°
2026-04-30 07:40 57.12423 8.66308 37512 ft 446 kts 188°
2026-04-30 07:41 57.06278 8.64768 37513 ft 446 kts 188°
2026-04-30 07:41 57.00135 8.63251 37518 ft 445 kts 188°
2026-04-30 07:42 56.94006 8.61745 37523 ft 444 kts 188°
2026-04-30 07:42 56.87880 8.60242 37524 ft 444 kts 188°
2026-04-30 07:43 56.81765 8.58752 37524 ft 443 kts 188°
2026-04-30 07:43 56.75662 8.57266 37534 ft 443 kts 188°
2026-04-30 07:44 56.69561 8.55773 37528 ft 442 kts 188°
2026-04-30 07:44 56.63466 8.54291 37529 ft 442 kts 188°
2026-04-30 07:45 56.57376 8.52824 37525 ft 441 kts 188°
2026-04-30 07:45 56.51297 8.51367 37528 ft 441 kts 188°
2026-04-30 07:46 56.45220 8.49904 37527 ft 441 kts 188°
2026-04-30 07:46 56.39140 8.48443 37530 ft 441 kts 188°
2026-04-30 07:47 56.33053 8.46994 37528 ft 441 kts 188°
2026-04-30 07:47 56.26970 8.45546 37533 ft 441 kts 188°
2026-04-30 07:48 56.20886 8.44103 37535 ft 441 kts 187°
2026-04-30 07:48 56.14798 8.42667 37539 ft 441 kts 187°
2026-04-30 07:49 56.08715 8.41167 37541 ft 441 kts 192°
2026-04-30 07:49 56.02829 8.38131 37537 ft 441 kts 198°
2026-04-30 07:50 55.96969 8.34897 37541 ft 441 kts 197°
2026-04-30 07:50 55.91103 8.31674 37544 ft 441 kts 197°
2026-04-30 07:51 55.85238 8.28466 37546 ft 441 kts 197°
2026-04-30 07:51 55.79372 8.25255 37552 ft 441 kts 197°
2026-04-30 07:52 55.73496 8.22051 37555 ft 442 kts 197°
2026-04-30 07:52 55.67622 8.18864 37559 ft 442 kts 197°
2026-04-30 07:53 55.61743 8.15681 37558 ft 441 kts 197°
2026-04-30 07:53 55.55874 8.12494 37556 ft 441 kts 197°
2026-04-30 07:54 55.49998 8.09330 37556 ft 441 kts 197°
2026-04-30 07:54 55.44121 8.06192 37553 ft 441 kts 197°
2026-04-30 07:55 55.38238 8.03051 37548 ft 442 kts 197°
2026-04-30 07:55 55.32351 7.99916 37547 ft 442 kts 197°
2026-04-30 07:56 55.26465 7.96789 37547 ft 442 kts 197°
2026-04-30 07:56 55.20572 7.93660 37551 ft 442 kts 197°
2026-04-30 07:57 55.14681 7.90544 37551 ft 443 kts 197°
2026-04-30 07:57 55.08780 7.87442 37552 ft 443 kts 196°
2026-04-30 07:58 55.02880 7.84355 37555 ft 443 kts 196°
2026-04-30 07:58 54.96979 7.81259 37551 ft 443 kts 196°
2026-04-30 07:59 54.91110 7.78180 37549 ft 443 kts 196°
2026-04-30 07:59 54.85197 7.75103 37552 ft 444 kts 196°
2026-04-30 08:00 54.76323 7.70521 37551 ft 444 kts 196°
2026-04-30 08:00 54.70403 7.67457 37550 ft 444 kts 196°
2026-04-30 08:01 54.64484 7.64397 37743 ft 443 kts 196°
2026-04-30 08:01 54.61527 7.62878 37952 ft 443 kts 196°
2026-04-30 08:01 54.58588 7.61373 38150 ft 442 kts 196°
2026-04-30 08:02 54.52682 7.58362 38505 ft 442 kts 196°
2026-04-30 08:02 54.49730 7.56863 38532 ft 442 kts 196°
2026-04-30 08:03 54.37931 7.50874 38534 ft 442 kts 196°
2026-04-30 08:04 54.32026 7.47889 38533 ft 443 kts 196°
2026-04-30 08:04 54.26116 7.44900 38536 ft 443 kts 196°
2026-04-30 08:05 54.20196 7.41914 38540 ft 444 kts 195°
2026-04-30 08:05 54.14272 7.38945 38549 ft 444 kts 195°
2026-04-30 08:06 54.08338 7.35968 38546 ft 445 kts 195°
2026-04-30 08:06 54.02398 7.33007 38549 ft 445 kts 195°
2026-04-30 08:07 53.96455 7.30060 38548 ft 445 kts 195°
2026-04-30 08:07 53.90508 7.27112 38546 ft 445 kts 195°
2026-04-30 08:08 53.84556 7.24171 38540 ft 446 kts 195°
2026-04-30 08:08 53.78598 7.21239 38538 ft 446 kts 195°
2026-04-30 08:09 53.72638 7.18311 38534 ft 446 kts 195°
2026-04-30 08:09 53.66676 7.15384 38530 ft 446 kts 195°
2026-04-30 08:10 53.60708 7.12478 38533 ft 447 kts 195°
2026-04-30 08:10 53.54734 7.09578 38531 ft 447 kts 195°
2026-04-30 08:11 53.48762 7.06667 38532 ft 447 kts 195°
2026-04-30 08:11 53.42782 7.03766 38534 ft 447 kts 194°
2026-04-30 08:12 53.36799 7.00871 38530 ft 447 kts 194°
2026-04-30 08:12 53.31115 6.96655 38523 ft 449 kts 212°
2026-04-30 08:13 53.25860 6.90994 38520 ft 450 kts 212°
2026-04-30 08:13 53.20592 6.85354 38458 ft 450 kts 212°
2026-04-30 08:14 53.15322 6.79730 38406 ft 450 kts 212°
2026-04-30 08:14 53.10042 6.74117 38344 ft 450 kts 211°
2026-04-30 08:15 53.04764 6.68513 38286 ft 450 kts 211°
2026-04-30 08:15 52.99484 6.62913 38229 ft 450 kts 211°
2026-04-30 08:16 52.94201 6.57341 38173 ft 450 kts 211°
2026-04-30 08:16 52.88907 6.51779 38113 ft 451 kts 211°
2026-04-30 08:17 52.83608 6.46226 38051 ft 451 kts 211°
2026-04-30 08:17 52.78302 6.40674 37988 ft 451 kts 211°
2026-04-30 08:18 52.72998 6.35133 37857 ft 452 kts 211°
2026-04-30 08:18 52.70338 6.32365 37719 ft 452 kts 211°
2026-04-30 08:18 52.67681 6.29604 37538 ft 452 kts 211°
2026-04-30 08:18 52.65027 6.26850 37420 ft 450 kts 211°
2026-04-30 08:19 52.62366 6.24093 37461 ft 452 kts 211°
2026-04-30 08:19 52.57084 6.18630 37451 ft 441 kts 210°
2026-04-30 08:20 52.51920 6.13305 37453 ft 437 kts 210°
2026-04-30 08:20 52.47638 6.08905 37452 ft 437 kts 210°
2026-04-30 08:21 52.42488 6.03623 37447 ft 437 kts 210°
2026-04-30 08:21 52.37334 5.98358 37457 ft 436 kts 210°
2026-04-30 08:22 52.32183 5.93103 37442 ft 437 kts 210°
2026-04-30 08:22 52.27028 5.87854 37444 ft 437 kts 210°
2026-04-30 08:23 52.21862 5.82615 37444 ft 437 kts 210°
2026-04-30 08:23 52.16698 5.77389 37448 ft 437 kts 209°
2026-04-30 08:24 52.11532 5.72182 37453 ft 437 kts 209°
2026-04-30 08:24 52.06360 5.66983 37454 ft 437 kts 209°
2026-04-30 08:25 52.01198 5.61805 37452 ft 436 kts 209°
2026-04-30 08:25 51.96035 5.56630 37454 ft 436 kts 209°
2026-04-30 08:26 51.90875 5.51483 37450 ft 435 kts 209°
2026-04-30 08:26 51.85719 5.46357 37437 ft 435 kts 209°
2026-04-30 08:27 51.80571 5.41245 37432 ft 434 kts 209°
2026-04-30 08:27 51.75424 5.36151 37430 ft 434 kts 209°
2026-04-30 08:28 51.70282 5.31081 37427 ft 433 kts 209°
2026-04-30 08:28 51.65139 5.26029 37427 ft 433 kts 208°
2026-04-30 08:29 51.60004 5.20980 37421 ft 432 kts 208°
2026-04-30 08:29 51.54869 5.15945 37424 ft 432 kts 208°
2026-04-30 08:30 51.49731 5.10939 37417 ft 432 kts 208°
2026-04-30 08:30 51.44589 5.05940 37413 ft 432 kts 208°
2026-04-30 08:31 51.39455 5.00952 37412 ft 432 kts 208°
2026-04-30 08:31 51.34319 4.95976 37400 ft 431 kts 208°
2026-04-30 08:32 51.29191 4.91008 37384 ft 431 kts 208°
2026-04-30 08:32 51.24057 4.86051 37378 ft 431 kts 208°
2026-04-30 08:33 51.18924 4.81124 37376 ft 431 kts 208°
2026-04-30 08:33 51.13784 4.76209 37376 ft 431 kts 208°
2026-04-30 08:34 51.08653 4.71301 37369 ft 430 kts 208°
2026-04-30 08:34 51.03522 4.66398 37376 ft 430 kts 208°
2026-04-30 08:35 50.98386 4.61526 37372 ft 430 kts 208°
2026-04-30 08:35 50.93251 4.56666 37375 ft 430 kts 208°
2026-04-30 08:36 50.88535 4.50941 37374 ft 433 kts 224°
2026-04-30 08:36 50.84411 4.43890 37372 ft 433 kts 225°
2026-04-30 08:37 50.80316 4.36896 37370 ft 433 kts 225°
2026-04-30 08:37 50.76210 4.29927 37370 ft 433 kts 225°
2026-04-30 08:38 50.72102 4.22990 37359 ft 432 kts 224°
2026-04-30 08:38 50.67988 4.16064 37347 ft 432 kts 224°
2026-04-30 08:39 50.63877 4.09156 37344 ft 431 kts 223°
2026-04-30 08:39 50.59233 4.03440 37341 ft 425 kts 206°
2026-04-30 08:40 50.54018 3.98967 37334 ft 424 kts 206°
2026-04-30 08:40 50.48846 3.94534 37330 ft 424 kts 206°
2026-04-30 08:41 50.43670 3.90097 37326 ft 424 kts 206°
2026-04-30 08:41 50.38529 3.85694 37314 ft 424 kts 206°
2026-04-30 08:42 50.33359 3.81291 37308 ft 423 kts 206°
2026-04-30 08:42 50.28180 3.76900 37307 ft 423 kts 206°
2026-04-30 08:43 50.23006 3.72523 37298 ft 423 kts 206°
2026-04-30 08:43 50.17838 3.68157 37297 ft 422 kts 206°
2026-04-30 08:44 50.12672 3.63794 37290 ft 422 kts 206°
2026-04-30 08:44 50.07471 3.59410 37286 ft 422 kts 206°
2026-04-30 08:45 50.02334 3.55102 37286 ft 422 kts 206°
2026-04-30 08:45 49.97171 3.50785 37276 ft 422 kts 206°
2026-04-30 08:46 49.91998 3.46478 37270 ft 421 kts 206°
2026-04-30 08:46 49.86831 3.42180 37274 ft 422 kts 206°
2026-04-30 08:47 49.81662 3.37881 37266 ft 422 kts 206°
2026-04-30 08:47 49.76493 3.33587 37260 ft 422 kts 206°
2026-04-30 08:48 49.71320 3.29298 37261 ft 422 kts 206°
2026-04-30 08:48 49.66137 3.25026 37255 ft 422 kts 205°
2026-04-30 08:49 49.60945 3.20762 37248 ft 423 kts 206°
2026-04-30 08:49 49.55750 3.16506 37248 ft 423 kts 206°
2026-04-30 08:50 49.50546 3.12240 37243 ft 424 kts 205°
2026-04-30 08:50 49.45502 3.07504 37241 ft 426 kts 211°
2026-04-30 08:51 49.40566 3.02483 37238 ft 426 kts 211°
2026-04-30 08:51 49.35608 2.97453 37235 ft 427 kts 211°
2026-04-30 08:52 49.30653 2.92429 37227 ft 427 kts 211°
2026-04-30 08:52 49.25690 2.87419 37227 ft 427 kts 211°
2026-04-30 08:53 49.20721 2.82422 37223 ft 427 kts 211°
2026-04-30 08:53 49.15759 2.77433 37224 ft 427 kts 211°
2026-04-30 08:54 49.10795 2.72450 37217 ft 427 kts 211°
2026-04-30 08:54 49.05833 2.67499 37220 ft 426 kts 211°
2026-04-30 08:55 49.00928 2.62624 37220 ft 425 kts 211°
2026-04-30 08:55 48.95975 2.57705 37221 ft 425 kts 211°
2026-04-30 08:56 48.91039 2.52797 37220 ft 424 kts 211°
2026-04-30 08:56 48.86133 2.47933 37219 ft 423 kts 211°
2026-04-30 08:57 48.81175 2.43033 37220 ft 422 kts 211°
2026-04-30 08:57 48.76254 2.38180 37221 ft 422 kts 211°
2026-04-30 08:58 48.71329 2.33344 37217 ft 421 kts 211°
2026-04-30 08:58 48.66402 2.28519 37216 ft 421 kts 211°
2026-04-30 08:59 48.61479 2.23708 37209 ft 421 kts 210°
2026-04-30 08:59 48.56383 2.19435 37189 ft 417 kts 198°
2026-04-30 09:00 48.50808 2.17239 37186 ft 414 kts 189°
2026-04-30 09:00 48.45180 2.15422 37179 ft 414 kts 190°
2026-04-30 09:01 48.39549 2.13596 37173 ft 414 kts 190°
2026-04-30 09:01 48.33919 2.11784 37169 ft 414 kts 190°
2026-04-30 09:02 48.25404 2.10612 37155 ft 409 kts 171°
2026-04-30 09:02 48.19806 2.11813 37147 ft 409 kts 170°
2026-04-30 09:03 48.14150 2.12885 37141 ft 411 kts 176°
2026-04-30 09:03 48.08449 2.12215 37141 ft 412 kts 186°
2026-04-30 09:04 48.03674 2.11294 37133 ft 413 kts 186°
2026-04-30 09:04 47.97971 2.10208 37141 ft 414 kts 186°
2026-04-30 09:05 47.92259 2.09127 37151 ft 414 kts 186°
2026-04-30 09:05 47.86543 2.08043 37152 ft 414 kts 186°
2026-04-30 09:06 47.80830 2.06946 37150 ft 414 kts 186°
2026-04-30 09:06 47.75115 2.05852 37146 ft 414 kts 186°
2026-04-30 09:07 47.69400 2.04779 37137 ft 414 kts 186°
2026-04-30 09:07 47.63708 2.03561 37126 ft 414 kts 193°
2026-04-30 09:08 47.58283 2.00715 37118 ft 414 kts 200°
2026-04-30 09:08 47.52916 1.97628 37120 ft 414 kts 200°
2026-04-30 09:09 47.47541 1.94556 37116 ft 414 kts 200°
2026-04-30 09:09 47.42174 1.91490 37121 ft 414 kts 200°
2026-04-30 09:10 47.36798 1.88430 37126 ft 414 kts 200°
2026-04-30 09:10 47.31429 1.85361 37131 ft 414 kts 200°
2026-04-30 09:11 47.26069 1.82307 37132 ft 413 kts 200°
2026-04-30 09:11 47.20736 1.79288 37133 ft 413 kts 200°
2026-04-30 09:12 47.15387 1.76262 37129 ft 412 kts 200°
2026-04-30 09:12 47.10039 1.73230 37122 ft 411 kts 200°
2026-04-30 09:13 47.04701 1.70217 37105 ft 411 kts 200°
2026-04-30 09:13 46.99360 1.67225 37107 ft 411 kts 200°
2026-04-30 09:14 46.94027 1.64236 37106 ft 410 kts 200°
2026-04-30 09:14 46.88689 1.61242 37105 ft 410 kts 200°
2026-04-30 09:15 46.83360 1.58258 37107 ft 410 kts 200°
2026-04-30 09:15 46.78028 1.55275 37106 ft 410 kts 200°
2026-04-30 09:16 46.72692 1.52304 37104 ft 410 kts 200°
2026-04-30 09:16 46.67353 1.49344 37110 ft 410 kts 200°
2026-04-30 09:17 46.62015 1.46390 37113 ft 410 kts 200°
2026-04-30 09:17 46.56681 1.43436 37114 ft 410 kts 200°
2026-04-30 09:18 46.51347 1.40488 37113 ft 410 kts 200°
2026-04-30 09:18 46.46009 1.37551 37115 ft 410 kts 200°
2026-04-30 09:19 46.40674 1.34626 37114 ft 410 kts 200°
2026-04-30 09:19 46.35345 1.31701 37118 ft 409 kts 200°
2026-04-30 09:20 46.30023 1.28786 37119 ft 409 kts 200°
2026-04-30 09:20 46.24694 1.25876 37120 ft 409 kts 200°
2026-04-30 09:21 46.19368 1.22974 37117 ft 409 kts 200°
2026-04-30 09:21 46.14041 1.20079 37121 ft 409 kts 200°
2026-04-30 09:22 46.08726 1.17198 37126 ft 408 kts 200°
2026-04-30 09:22 46.03404 1.14316 37129 ft 408 kts 200°
2026-04-30 09:23 45.98088 1.11440 37130 ft 408 kts 200°
2026-04-30 09:23 45.93217 1.08805 37133 ft 408 kts 200°
2026-04-30 09:24 45.87908 1.05954 37129 ft 407 kts 200°
2026-04-30 09:24 45.82641 1.02953 37126 ft 408 kts 207°
2026-04-30 09:25 45.78019 0.98277 37121 ft 409 kts 219°
2026-04-30 09:25 45.73657 0.93023 37115 ft 409 kts 219°
2026-04-30 09:26 45.69288 0.87795 37111 ft 410 kts 218°
2026-04-30 09:26 45.64904 0.82582 37106 ft 410 kts 218°
2026-04-30 09:27 45.60517 0.77370 37104 ft 410 kts 218°
2026-04-30 09:27 45.56126 0.72150 37105 ft 411 kts 218°
2026-04-30 09:28 45.51735 0.66940 37106 ft 411 kts 218°
2026-04-30 09:28 45.47341 0.61739 37105 ft 410 kts 219°
2026-04-30 09:29 45.44023 0.57834 37105 ft 410 kts 219°
2026-04-30 09:29 45.39637 0.52650 37107 ft 410 kts 219°
2026-04-30 09:30 45.35246 0.47479 37108 ft 410 kts 218°
2026-04-30 09:30 45.30845 0.42316 37110 ft 410 kts 219°
2026-04-30 09:31 45.26454 0.37167 37113 ft 409 kts 219°
2026-04-30 09:31 45.22032 0.31997 37097 ft 417 kts 218°
2026-04-30 09:32 45.17500 0.26711 37093 ft 426 kts 219°
2026-04-30 09:32 45.12877 0.21327 37095 ft 428 kts 219°
2026-04-30 09:33 45.08312 0.16021 37091 ft 427 kts 219°
2026-04-30 09:33 45.03719 0.10699 37092 ft 427 kts 219°
2026-04-30 09:34 44.99125 0.05401 37100 ft 426 kts 219°
2026-04-30 09:34 44.94532 0.00095 37109 ft 426 kts 219°
2026-04-30 09:35 44.89949 -0.05194 37114 ft 425 kts 219°
2026-04-30 09:35 44.85369 -0.10459 37117 ft 424 kts 219°
2026-04-30 09:36 44.80802 -0.15693 37119 ft 423 kts 218°
2026-04-30 09:36 44.76243 -0.20912 37120 ft 422 kts 218°
2026-04-30 09:37 44.71696 -0.26102 37112 ft 421 kts 218°
2026-04-30 09:37 44.67149 -0.31284 37109 ft 420 kts 218°
2026-04-30 09:38 44.62287 -0.35772 37105 ft 419 kts 207°
2026-04-30 09:38 44.57119 -0.39557 37101 ft 419 kts 207°
2026-04-30 09:39 44.51955 -0.43358 37098 ft 419 kts 207°
2026-04-30 09:39 44.46789 -0.47154 37091 ft 419 kts 207°
2026-04-30 09:40 44.41619 -0.50938 37091 ft 420 kts 207°
2026-04-30 09:40 44.36435 -0.54725 37091 ft 420 kts 207°
2026-04-30 09:41 44.31252 -0.58504 37090 ft 420 kts 207°
2026-04-30 09:41 44.26062 -0.62279 37085 ft 421 kts 208°
2026-04-30 09:42 44.20875 -0.66049 37084 ft 421 kts 208°
2026-04-30 09:42 44.15675 -0.69815 37083 ft 421 kts 208°
2026-04-30 09:43 44.10480 -0.73568 37083 ft 421 kts 208°
2026-04-30 09:43 44.05282 -0.77320 37079 ft 421 kts 208°
2026-04-30 09:44 44.00081 -0.81068 37076 ft 421 kts 208°
2026-04-30 09:44 43.94877 -0.84808 37080 ft 421 kts 208°
2026-04-30 09:45 43.89667 -0.88544 37086 ft 421 kts 208°
2026-04-30 09:45 43.84459 -0.92278 37088 ft 422 kts 208°
2026-04-30 09:46 43.80127 -0.95372 37093 ft 422 kts 208°
2026-04-30 09:46 43.74909 -0.99092 37094 ft 422 kts 208°
2026-04-30 09:47 43.68813 -1.03432 37094 ft 422 kts 209°
2026-04-30 09:47 43.64474 -1.06518 37095 ft 422 kts 209°
2026-04-30 09:48 43.59255 -1.10219 37098 ft 422 kts 209°
2026-04-30 09:48 43.54036 -1.13914 37098 ft 422 kts 209°
2026-04-30 09:49 43.48819 -1.17605 37098 ft 421 kts 209°
2026-04-30 09:49 43.43600 -1.21287 37097 ft 421 kts 209°
2026-04-30 09:50 43.38389 -1.24956 37098 ft 421 kts 209°
2026-04-30 09:50 43.33181 -1.28615 37097 ft 420 kts 210°
2026-04-30 09:51 43.27958 -1.32271 37053 ft 423 kts 210°
2026-04-30 09:51 43.22684 -1.35956 37046 ft 427 kts 210°
2026-04-30 09:52 43.17386 -1.39655 37047 ft 429 kts 210°
2026-04-30 09:52 43.12058 -1.43369 37055 ft 431 kts 210°
2026-04-30 09:53 43.06709 -1.47094 37072 ft 431 kts 210°
2026-04-30 09:53 43.01389 -1.50796 37095 ft 432 kts 210°
2026-04-30 09:54 42.95995 -1.54547 37106 ft 432 kts 210°
2026-04-30 09:54 42.90633 -1.58272 37117 ft 432 kts 211°
2026-04-30 09:55 42.85277 -1.61994 37121 ft 432 kts 211°
2026-04-30 09:55 42.79922 -1.65696 37123 ft 432 kts 211°
2026-04-30 09:56 42.74604 -1.69362 37123 ft 431 kts 211°
2026-04-30 09:56 42.69237 -1.73023 37124 ft 432 kts 211°
2026-04-30 09:57 42.63853 -1.76630 37118 ft 432 kts 210°
2026-04-30 09:57 42.58455 -1.80229 37120 ft 432 kts 211°
2026-04-30 09:58 42.53074 -1.83837 37116 ft 432 kts 211°
2026-04-30 09:58 42.47687 -1.87457 37111 ft 432 kts 211°
2026-04-30 09:59 42.36911 -1.94645 37108 ft 432 kts 211°
2026-04-30 10:00 42.28832 -2.00015 37110 ft 431 kts 211°
2026-04-30 10:01 42.20761 -2.05364 37110 ft 431 kts 211°
2026-04-30 10:02 42.12695 -2.10706 37113 ft 430 kts 211°
2026-04-30 10:02 42.07321 -2.14243 37110 ft 430 kts 211°
2026-04-30 10:03 42.01947 -2.17778 37105 ft 430 kts 211°
2026-04-30 10:03 41.96546 -2.21322 37104 ft 429 kts 211°
2026-04-30 10:04 41.91189 -2.24826 37107 ft 428 kts 211°
2026-04-30 10:04 41.85839 -2.28321 37099 ft 427 kts 211°
2026-04-30 10:05 41.80506 -2.31809 37104 ft 426 kts 211°
2026-04-30 10:05 41.75213 -2.35277 37113 ft 426 kts 211°
2026-04-30 10:06 41.69847 -2.38769 37113 ft 426 kts 211°
2026-04-30 10:06 41.64555 -2.42200 37115 ft 425 kts 211°
2026-04-30 10:07 41.59232 -2.45650 37106 ft 425 kts 211°
2026-04-30 10:07 41.53915 -2.49091 37113 ft 425 kts 211°
2026-04-30 10:08 41.48595 -2.52527 37107 ft 424 kts 211°
2026-04-30 10:08 41.43286 -2.55951 37117 ft 424 kts 211°
2026-04-30 10:09 41.37976 -2.59363 37113 ft 423 kts 211°
2026-04-30 10:09 41.32688 -2.62798 37104 ft 421 kts 214°
2026-04-30 10:10 41.27867 -2.67107 37118 ft 417 kts 219°
2026-04-30 10:10 41.23100 -2.71508 37118 ft 417 kts 219°
2026-04-30 10:11 41.18334 -2.75898 37121 ft 417 kts 219°
2026-04-30 10:11 41.13563 -2.80276 37113 ft 417 kts 218°
2026-04-30 10:12 41.08787 -2.84644 37113 ft 417 kts 218°
2026-04-30 10:12 41.04016 -2.89006 37124 ft 417 kts 218°
2026-04-30 10:13 40.99239 -2.93374 37110 ft 417 kts 218°
2026-04-30 10:13 40.94458 -2.97726 37108 ft 417 kts 218°
2026-04-30 10:14 40.89673 -3.02080 37112 ft 417 kts 218°
2026-04-30 10:14 40.82491 -3.08597 37125 ft 418 kts 218°
2026-04-30 10:15 40.77694 -3.12938 37122 ft 418 kts 218°
2026-04-30 10:15 40.72893 -3.17273 37114 ft 418 kts 217°
2026-04-30 10:16 40.68085 -3.21601 37115 ft 418 kts 217°
2026-04-30 10:17 40.60886 -3.28080 37111 ft 418 kts 217°
2026-04-30 10:17 40.53672 -3.34558 37119 ft 419 kts 217°
2026-04-30 10:18 40.48863 -3.38872 37126 ft 419 kts 217°
2026-04-30 10:19 40.41631 -3.45342 37132 ft 419 kts 217°
2026-04-30 10:19 40.36807 -3.49646 37135 ft 419 kts 217°
2026-04-30 10:20 40.31984 -3.53934 37136 ft 419 kts 217°
2026-04-30 10:20 40.24752 -3.60358 37132 ft 419 kts 217°
2026-04-30 10:21 40.19931 -3.64635 37126 ft 419 kts 217°
2026-04-30 10:21 40.15104 -3.68904 37110 ft 419 kts 217°
2026-04-30 10:22 40.10267 -3.73170 37125 ft 419 kts 216°
2026-04-30 10:22 40.05431 -3.77431 37116 ft 419 kts 216°
2026-04-30 10:23 40.00596 -3.81689 37115 ft 420 kts 216°
2026-04-30 10:23 39.95751 -3.85948 37111 ft 420 kts 216°
2026-04-30 10:24 39.90897 -3.90190 37114 ft 420 kts 216°
2026-04-30 10:24 39.86041 -3.94441 37108 ft 421 kts 216°
2026-04-30 10:25 39.81185 -3.98690 37116 ft 421 kts 216°
2026-04-30 10:25 39.76328 -4.02933 37107 ft 421 kts 216°
2026-04-30 10:26 39.71499 -4.07141 37111 ft 421 kts 216°
2026-04-30 10:26 39.66601 -4.11405 37110 ft 421 kts 216°
2026-04-30 10:27 39.61735 -4.15627 37120 ft 421 kts 216°
2026-04-30 10:27 39.57682 -4.19134 37107 ft 421 kts 216°
2026-04-30 10:28 39.52813 -4.23343 37110 ft 421 kts 216°
2026-04-30 10:28 39.47935 -4.27550 37110 ft 421 kts 216°
2026-04-30 10:29 39.43067 -4.31759 37108 ft 421 kts 216°
2026-04-30 10:29 39.38201 -4.35950 37113 ft 420 kts 216°
2026-04-30 10:30 39.33326 -4.40137 37111 ft 420 kts 216°
2026-04-30 10:30 39.28457 -4.44310 37113 ft 420 kts 216°
2026-04-30 10:31 39.23529 -4.48376 37112 ft 422 kts 209°
2026-04-30 10:31 39.17893 -4.50604 37112 ft 429 kts 193°
2026-04-30 10:32 39.11995 -4.51836 37110 ft 429 kts 193°
2026-04-30 10:32 39.06099 -4.53069 37104 ft 430 kts 193°
2026-04-30 10:33 39.00195 -4.54301 37106 ft 430 kts 193°
2026-04-30 10:33 38.94289 -4.55535 37099 ft 430 kts 193°
2026-04-30 10:34 38.88390 -4.56771 37108 ft 430 kts 193°
2026-04-30 10:34 38.82484 -4.58007 37103 ft 430 kts 193°
2026-04-30 10:35 38.76623 -4.59231 37111 ft 430 kts 193°
2026-04-30 10:35 38.70687 -4.60469 37109 ft 429 kts 193°
2026-04-30 10:36 38.64788 -4.61690 37110 ft 429 kts 193°
2026-04-30 10:36 38.58886 -4.62916 37099 ft 429 kts 193°
2026-04-30 10:37 38.53028 -4.64130 37107 ft 429 kts 193°
2026-04-30 10:37 38.50037 -4.64749 36804 ft 430 kts 193°
2026-04-30 10:37 38.47113 -4.65351 36520 ft 422 kts 193°
2026-04-30 10:38 38.44232 -4.65941 36180 ft 418 kts 193°
2026-04-30 10:38 38.41378 -4.66525 35832 ft 414 kts 193°
2026-04-30 10:38 38.38541 -4.67106 35478 ft 412 kts 193°
2026-04-30 10:38 38.35759 -4.67675 35141 ft 409 kts 193°
2026-04-30 10:39 38.32962 -4.68248 34799 ft 406 kts 193°
2026-04-30 10:39 38.30179 -4.68821 34421 ft 404 kts 194°
2026-04-30 10:39 38.27416 -4.69392 34033 ft 400 kts 194°
2026-04-30 10:39 38.24677 -4.69956 33653 ft 398 kts 194°
2026-04-30 10:40 38.21952 -4.70513 33277 ft 395 kts 194°
2026-04-30 10:40 38.19246 -4.71066 32912 ft 393 kts 194°
2026-04-30 10:40 38.16556 -4.71618 32545 ft 390 kts 194°
2026-04-30 10:40 38.13880 -4.72170 32186 ft 388 kts 194°
2026-04-30 10:41 38.11221 -4.72718 31834 ft 386 kts 194°
2026-04-30 10:41 38.08579 -4.73260 31483 ft 384 kts 194°
2026-04-30 10:41 38.05951 -4.73797 31138 ft 382 kts 194°
2026-04-30 10:41 38.03329 -4.74329 30800 ft 380 kts 194°
2026-04-30 10:42 38.00727 -4.74855 30465 ft 378 kts 194°
2026-04-30 10:42 37.98134 -4.75380 30125 ft 376 kts 194°
2026-04-30 10:42 37.95560 -4.75905 29736 ft 374 kts 194°
2026-04-30 10:42 37.92994 -4.76426 29344 ft 372 kts 194°
2026-04-30 10:43 37.90443 -4.76943 28960 ft 370 kts 193°
2026-04-30 10:43 37.87904 -4.77459 28581 ft 368 kts 194°
2026-04-30 10:43 37.85377 -4.77974 28208 ft 367 kts 193°
2026-04-30 10:43 37.82866 -4.78482 27836 ft 365 kts 193°
2026-04-30 10:44 37.80363 -4.78986 27471 ft 363 kts 193°
2026-04-30 10:44 37.77876 -4.79492 27114 ft 361 kts 193°
2026-04-30 10:44 37.75396 -4.80000 26638 ft 362 kts 193°
2026-04-30 10:44 37.72967 -4.80758 26147 ft 358 kts 207°
2026-04-30 10:45 37.70924 -4.82471 25651 ft 353 kts 227°
2026-04-30 10:45 37.69474 -4.84945 25179 ft 352 kts 239°
2026-04-30 10:45 37.68281 -4.87648 24701 ft 353 kts 246°
2026-04-30 10:45 37.67415 -4.90552 24236 ft 354 kts 250°
2026-04-30 10:46 37.66613 -4.93488 23778 ft 354 kts 250°
2026-04-30 10:46 37.65815 -4.96434 23259 ft 355 kts 250°
2026-04-30 10:46 37.65019 -4.99376 22725 ft 355 kts 250°
2026-04-30 10:46 37.64220 -5.02325 22192 ft 355 kts 250°
2026-04-30 10:47 37.63423 -5.05271 21673 ft 355 kts 250°
2026-04-30 10:47 37.62623 -5.08211 21160 ft 354 kts 249°
2026-04-30 10:47 37.61448 -5.10908 20658 ft 353 kts 230°
2026-04-30 10:47 37.59572 -5.12877 20171 ft 354 kts 210°
2026-04-30 10:48 37.57237 -5.13844 19681 ft 357 kts 189°
2026-04-30 10:48 37.54752 -5.13671 19209 ft 362 kts 168°
2026-04-30 10:48 37.52446 -5.12363 18736 ft 368 kts 148°
2026-04-30 10:48 37.50632 -5.10079 18258 ft 374 kts 127°
2026-04-30 10:49 37.49506 -5.07116 17720 ft 377 kts 112°
2026-04-30 10:49 37.48682 -5.03992 17201 ft 376 kts 110°
2026-04-30 10:49 37.47887 -5.00860 16688 ft 374 kts 110°
2026-04-30 10:49 37.47102 -4.97747 16178 ft 373 kts 110°
2026-04-30 10:50 37.46320 -4.94643 15680 ft 371 kts 110°
2026-04-30 10:50 37.45545 -4.91556 15191 ft 369 kts 110°
2026-04-30 10:50 37.44777 -4.88487 14709 ft 367 kts 110°
2026-04-30 10:50 37.44014 -4.85430 14229 ft 365 kts 110°
2026-04-30 10:51 37.43206 -4.82414 13739 ft 361 kts 117°
2026-04-30 10:51 37.41822 -4.79856 13219 ft 351 kts 139°
2026-04-30 10:51 37.39840 -4.78174 12695 ft 340 kts 161°
2026-04-30 10:51 37.37572 -4.77587 12187 ft 331 kts 182°
2026-04-30 10:52 37.35344 -4.78126 11693 ft 326 kts 200°
2026-04-30 10:52 37.33176 -4.78921 11199 ft 325 kts 191°
2026-04-30 10:52 37.30965 -4.79438 10709 ft 322 kts 194°
2026-04-30 10:52 37.28799 -4.80118 10244 ft 320 kts 195°
2026-04-30 10:53 37.26639 -4.80558 10065 ft 309 kts 185°
2026-04-30 10:53 37.24543 -4.80622 10066 ft 293 kts 180°
2026-04-30 10:53 37.22555 -4.80539 10067 ft 279 kts 179°
2026-04-30 10:53 37.20662 -4.80435 10049 ft 266 kts 179°
2026-04-30 10:54 37.18828 -4.80354 9847 ft 261 kts 180°
2026-04-30 10:54 37.17026 -4.80285 9640 ft 257 kts 180°
2026-04-30 10:54 37.15252 -4.80232 9431 ft 253 kts 180°
2026-04-30 10:54 37.13509 -4.80193 9222 ft 248 kts 181°
2026-04-30 10:55 37.11794 -4.80162 9011 ft 244 kts 181°
2026-04-30 10:55 37.10102 -4.80137 8756 ft 242 kts 181°
2026-04-30 10:55 37.08425 -4.80119 8503 ft 240 kts 181°
2026-04-30 10:55 37.06760 -4.80100 8247 ft 238 kts 180°
2026-04-30 10:56 37.05118 -4.79895 7997 ft 236 kts 175°
2026-04-30 10:56 37.03491 -4.79655 7749 ft 234 kts 175°
2026-04-30 10:56 37.01881 -4.79418 7499 ft 232 kts 176°
2026-04-30 10:56 37.00286 -4.79183 7256 ft 230 kts 175°
2026-04-30 10:57 36.98702 -4.78947 6960 ft 229 kts 176°
2026-04-30 10:57 36.97106 -4.78711 6609 ft 233 kts 175°
2026-04-30 10:57 36.95487 -4.78470 6231 ft 235 kts 176°
2026-04-30 10:57 36.93847 -4.78228 5853 ft 239 kts 175°
2026-04-30 10:58 36.92178 -4.77984 5478 ft 244 kts 175°
2026-04-30 10:58 36.90513 -4.77739 5303 ft 236 kts 175°
2026-04-30 10:58 36.88925 -4.77502 5220 ft 226 kts 175°
2026-04-30 10:58 36.87407 -4.77098 5048 ft 223 kts 160°
2026-04-30 10:59 36.86120 -4.76038 4801 ft 224 kts 139°
2026-04-30 10:59 36.85055 -4.74623 4540 ft 224 kts 134°
2026-04-30 10:59 36.84027 -4.73161 4291 ft 224 kts 134°
2026-04-30 10:59 36.83003 -4.71708 4073 ft 221 kts 135°
2026-04-30 11:00 36.81978 -4.70262 3995 ft 221 kts 135°
2026-04-30 11:00 36.80953 -4.68819 3963 ft 223 kts 134°
2026-04-30 11:00 36.79935 -4.67386 3736 ft 221 kts 134°
2026-04-30 11:00 36.78910 -4.65943 3453 ft 224 kts 134°
2026-04-30 11:01 36.77867 -4.64477 3135 ft 226 kts 134°
2026-04-30 11:01 36.76830 -4.63018 2830 ft 224 kts 133°
2026-04-30 11:01 36.75800 -4.61570 2514 ft 222 kts 133°
2026-04-30 11:01 36.74813 -4.60182 2200 ft 205 kts 133°
2026-04-30 11:02 36.73891 -4.58887 1918 ft 193 kts 132°
2026-04-30 11:02 36.73036 -4.57690 1659 ft 177 kts 133°
2026-04-30 11:02 36.72242 -4.56574 1367 ft 168 kts 133°
2026-04-30 11:02 36.71486 -4.55513 1111 ft 159 kts 132°
2026-04-30 11:03 36.70768 -4.54506 856 ft 152 kts 131°
2026-04-30 11:03 36.70069 -4.53526 625 ft 150 kts 130°
2026-04-30 11:03 36.69401 -4.52572 382 ft 142 kts 130°
2026-04-30 11:04 36.68110 -4.50780 62 ft 130 kts 131°
2026-04-30 11:04 36.67594 -4.50056 50 ft 88 kts 131°
2026-04-30 11:04 36.67326 -4.49657 47 ft 36 kts 114°
2026-04-30 11:04 36.67295 -4.49519 49 ft 11 kts 105°
2026-04-30 11:05 36.67286 -4.49417 47 ft 11 kts 59°
2026-04-30 11:05 36.67345 -4.49421 45 ft 9 kts 331°
2026-04-30 11:05 36.67397 -4.49484 47 ft 11 kts 312°
2026-04-30 11:05 36.67453 -4.49564 47 ft 13 kts 310°
2026-04-30 11:06 36.67512 -4.49647 48 ft 12 kts 314°
2026-04-30 11:06 36.67579 -4.49640 49 ft 11 kts 62°
2026-04-30 11:06 36.67540 -4.49545 46 ft 15 kts 131°
2026-04-30 11:06 36.67466 -4.49448 46 ft 16 kts 131°
2026-04-30 11:07 36.67389 -4.49339 61 ft 18 kts 131°
2026-04-30 11:07 36.67365 -4.49225 43 ft 14 kts 43°
2026-04-30 11:07 36.67397 -4.49141 44 ft 5 kts 108°
2026-04-30 11:07 36.67388 -4.49105 43 ft 3 kts 112°
2026-04-30 11:08 36.67386 -4.49097 43 ft 0 kts 111°